Theta_e
327 326 325 324 324 323 323 322 321 321 322 322 322 322 321 321 321 322 323 324 325 325 326 325 325 324 319 311 311 320 324 327 318 315 312 309 306 305 302 303 305 303 304 305 306 305 305
328 327 326 325 324 323 323 323 322 321 321 322 322 321 321 321 321 322 323 324 325 325 324 323 323 321 314 307 318 318 315 315 315 313 310 310 307 308 304 303 303 304 304 304 305 305 304
329 327 327 326 325 323 322 322 322 322 322 321 322 321 321 321 321 322 322 323 324 324 322 321 321 318 312 311 320 318 313 312 314 312 309 311 311 307 307 303 305 303 300 303 304 304 302
329 328 327 327 325 324 322 322 322 322 321 321 321 321 320 321 321 321 321 322 321 322 321 322 322 315 310 313 322 316 315 312 313 313 312 312 312 308 306 306 303 300 301 298 303 302 301
329 328 327 327 326 324 323 322 322 321 321 319 319 320 320 320 320 321 321 321 321 321 320 322 317 312 308 316 313 317 315 310 311 311 311 310 311 306 304 300 299 300 296 299 300 302 301
324 325 327 326 326 325 324 322 322 321 320 319 318 319 319 320 320 320 321 322 323 318 318 316 313 308 309 305 310 312 313 312 308 309 307 307 306 302 302 300 294 297 297 299 298 300 299
323 323 323 325 325 325 324 322 322 321 320 319 318 319 319 319 320 321 321 322 313 312 313 309 310 309 306 306 309 309 311 308 308 306 301 304 299 297 300 302 302 300 298 297 301 300 297
320 322 322 322 323 324 323 323 322 322 321 319 318 319 319 319 320 321 322 313 313 311 306 313 312 310 306 308 301 306 309 304 303 299 303 298 296 302 304 302 300 298 296 297 301 299 296
317 319 320 320 320 322 323 322 322 322 321 319 318 318 319 319 320 319 317 316 315 313 306 307 311 309 306 305 304 303 306 305 301 300 299 298 300 300 299 297 296 297 296 297 297 296 297
316 316 317 320 319 319 321 322 321 320 320 319 318 318 317 319 315 317 313 319 321 315 298 300 303 309 306 306 302 306 308 303 299 298 299 299 302 297 297 296 298 294 300 297 296 294 291
313 315 316 316 317 318 317 320 320 319 318 318 318 318 317 319 315 312 315 321 322 314 285 302 302 307 306 304 302 299 305 301 298 297 298 297 295 295 295 297 299 296 298 297 296 294 294
311 313 315 315 315 316 317 318 320 319 318 317 317 317 317 317 319 318 319 319 317 296 285 296 299 299 299 302 298 298 299 302 302 298 297 298 298 298 298 296 298 298 296 294 294 294 287
308 311 312 314 314 314 315 317 319 319 318 317 317 317 316 319 310 315 316 312 294 288 300 294 295 297 299 296 295 297 294 294 294 291 293 296 296 298 298 294 295 296 294 289 286 285 286
307 308 310 312 313 314 314 316 317 319 318 317 317 317 315 318 320 313 313 302 287 293 295 299 297 297 295 296 295 294 294 293 297 298 297 293 291 297 297 298 295 293 295 290 283 285 288
305 306 308 310 311 312 313 314 316 317 317 317 317 315 314 316 319 313 305 289 290 294 298 297 295 293 293 294 295 293 293 296 298 298 294 294 294 298 297 298 300 292 290 297 289 284 286
304 304 306 309 310 311 312 312 316 315 316 316 313 311 311 318 317 310 299 291 295 301 301 302 293 296 293 293 292 292 294 298 298 299 302 299 292 294 294 295 296 295 297 287 289 284 283
305 304 304 307 308 309 311 311 314 315 315 315 312 305 314 318 313 303 292 292 297 303 304 300 297 296 297 295 294 291 296 299 300 298 299 299 295 290 291 291 292 290 290 291 292 291 286
303 304 304 304 307 308 310 310 312 315 315 312 308 300 315 317 299 300 294 298 300 300 304 301 301 299 297 298 293 293 294 299 300 298 293 299 296 292 291 294 296 296 293 293 288 285 287
304 303 304 303 305 307 308 310 310 311 314 310 302 304 315 312 294 294 298 298 299 299 300 300 298 300 302 297 291 296 298 302 300 297 296 297 292 288 290 290 291 289 292 293 292 290 288
303 304 303 303 303 305 307 309 309 309 313 309 303 296 304 307 304 298 295 295 295 301 300 302 300 301 299 298 298 297 297 298 299 298 299 298 294 292 289 292 294 288 289 291 291 287 288
302 303 304 303 303 304 306 308 308 308 308 309 301 295 297 295 298 299 298 298 295 294 301 301 298 299 298 294 296 294 298 295 295 296 296 296 289 294 294 296 296 293 291 290 288 290 288
301 302 303 304 304 304 305 306 307 307 306 300 292 292 295 293 295 298 297 295 295 298 298 296 295 299 299 296 298 295 297 297 294 293 292 294 288 292 289 294 294 291 293 293 290 291 291
299 301 302 303 303 304 304 304 306 305 304 296 295 299 295 290 291 291 295 296 296 299 300 301 299 298 296 299 303 304 303 300 300 295 290 290 288 287 285 290 290 283 289 291 293 293 293
298 298 300 301 302 303 304 303 305 305 305 299 296 296 290 285 288 288 290 292 296 298 296 300 301 298 302 305 300 295 291 292 295 298 295 290 287 287 285 285 279 290 298 295 293 295 295
297 298 298 299 300 302 303 303 302 305 305 302 297 294 289 285 289 290 291 290 291 291 288 290 289 289 292 297 287 286 284 285 285 285 289 294 290 286 283 283 289 291 284 289 290 291 296
296 297 297 297 299 300 302 302 302 305 305 302 300 299 291 286 287 291 290 291 286 285 284 285 286 287 290 288 285 284 281 286 281 281 283 285 292 287 281 282 281 289 288 290 293 286 292
296 296 297 297 297 299 300 302 301 303 304 300 299 300 292 286 290 289 286 287 289 287 284 284 285 286 286 285 284 284 284 286 282 281 279 282 285 283 284 283 285 288 284 289 283 287 287
295 295 296 296 297 298 299 301 302 302 304 300 297 299 295 288 289 288 289 287 286 287 285 284 285 284 284 284 284 283 282 282 283 285 283 283 281 281 284 282 281 283 282 285 287 285 287
294 295 295 295 296 297 298 300 301 302 303 300 295 296 295 291 288 290 290 290 288 289 287 284 285 285 287 286 285 283 280 280 282 280 280 281 286 285 286 284 281 283 283 285 285 287 284
Wind_Speed
16 16 15 15 14 13 12 12 13 13 10 9 7 6 5 5 5 5 5 6 7 10 12 13 13 12 6 6 1 4 0 2 3 3 3 2 4 2 6 1 3 5 3 2 3 3 4
18 18 17 17 16 14 13 12 13 13 13 9 8 7 6 6 6 5 5 7 8 10 12 12 11 12 5 8 3 3 3 3 3 4 3 4 3 2 2 2 5 2 3 4 5 8 7
18 19 19 18 18 17 16 14 13 13 12 11 9 8 8 6 6 5 5 6 9 11 9 8 7 5 6 7 1 3 2 1 0 3 4 1 1 4 1 2 1 2 6 8 11 9 5
19 19 19 20 19 18 17 16 15 13 12 11 10 9 8 7 6 5 5 6 9 10 7 7 8 5 7 2 0 3 5 4 3 2 1 2 1 2 4 3 3 5 4 7 8 8 4
18 21 21 20 20 20 19 18 17 15 13 12 10 9 9 8 7 5 4 6 9 7 7 8 5 4 6 3 4 4 3 4 5 4 4 3 2 2 4 6 7 8 10 9 5 7 5
9 10 18 21 21 20 20 20 19 16 15 13 11 10 9 9 7 5 6 6 4 6 5 4 2 4 7 2 4 4 2 7 3 8 6 5 6 8 8 10 10 9 11 9 10 6 7
12 9 9 14 21 21 21 20 21 18 18 15 13 12 10 9 7 6 6 5 5 5 5 9 3 4 4 5 3 4 4 7 5 9 9 8 10 14 17 16 17 8 9 13 9 3 4
15 11 9 13 13 21 22 22 21 20 19 18 15 13 11 10 8 7 7 5 5 4 8 15 12 8 2 5 4 8 7 10 9 13 11 6 16 16 9 9 11 12 13 17 14 3 4
14 14 10 7 10 14 22 23 22 22 21 20 17 15 13 10 8 4 9 5 3 3 7 9 9 9 6 10 7 14 15 7 9 15 15 17 3 4 9 8 11 14 15 15 14 2 11
16 13 14 13 10 10 17 24 24 24 22 20 19 17 15 11 5 7 7 8 4 4 8 14 10 8 9 8 8 4 15 5 6 15 14 14 9 6 9 14 13 15 13 13 12 7 10
15 15 12 12 13 12 12 21 25 25 24 22 21 20 19 20 4 10 4 9 8 4 11 4 9 3 6 15 12 6 5 6 13 10 8 5 9 12 13 16 10 8 2 6 9 11 13
17 17 14 14 14 14 13 13 26 27 26 25 23 24 22 13 5 7 9 11 7 6 19 7 7 9 11 11 4 6 8 1 2 7 8 8 2 6 6 4 5 9 5 3 3 7 10
18 18 16 17 14 16 16 16 18 28 27 27 25 24 22 13 13 8 11 9 6 15 6 12 8 10 17 10 9 10 16 16 15 10 16 13 14 7 5 6 3 12 8 5 5 7 9
19 18 17 17 15 16 17 17 12 22 26 26 27 26 22 14 11 14 10 8 11 35 34 10 5 10 15 13 10 10 14 14 23 18 8 13 9 22 16 20 9 20 17 7 7 7 4
18 19 18 17 17 16 18 20 16 11 23 26 26 15 14 16 15 11 14 19 23 40 22 17 8 9 15 11 7 11 15 16 15 22 16 13 10 7 8 5 14 8 14 10 5 2 4
18 19 18 18 15 18 17 19 17 14 13 23 12 12 17 19 16 13 17 22 29 24 23 19 29 20 18 16 13 16 17 13 15 24 13 4 5 6 5 3 4 9 9 6 7 6 9
16 17 19 18 17 18 16 18 17 17 14 14 12 7 10 19 12 12 18 20 32 24 24 26 25 23 21 16 18 13 10 7 19 20 20 8 6 7 7 14 18 9 10 10 5 9 5
20 18 18 19 17 17 17 16 16 16 13 5 7 12 14 19 16 9 18 41 18 28 20 12 15 24 20 18 15 18 19 13 19 18 18 13 3 10 14 3 10 16 14 20 8 6 6
18 19 19 19 21 17 19 14 14 13 19 2 4 8 14 18 17 15 20 22 24 20 30 23 17 16 19 18 11 21 15 13 16 19 21 15 7 3 6 4 1 10 16 13 18 1 17
22 19 19 20 20 17 19 14 12 8 9 7 3 6 8 11 19 25 23 26 25 22 25 28 17 12 17 22 18 12 19 7 15 15 7 14 8 15 20 10 10 11 16 21 19 14 15
21 22 19 19 19 17 16 15 10 8 11 8 4 2 3 6 17 26 29 22 32 27 27 24 21 29 25 19 21 25 14 7 3 6 7 12 13 17 24 22 17 11 18 24 29 35 18
19 20 20 18 17 15 14 16 10 7 7 2 6 5 1 4 6 22 29 30 32 33 22 28 26 32 26 27 27 18 21 17 11 10 8 2 11 17 25 23 22 25 20 25 31 30 30
16 22 18 17 16 15 10 15 10 6 3 1 2 3 5 3 5 6 12 31 33 25 26 33 36 27 28 40 30 25 15 8 9 16 15 12 7 9 19 14 18 6 41 23 27 31 26
17 16 21 18 17 16 11 12 12 11 10 2 1 3 3 4 9 7 5 5 17 26 32 26 30 29 36 5 3 6 7 2 4 14 13 15 17 9 12 4 16 23 16 25 34 29 25
20 18 22 18 17 17 16 12 11 14 13 3 3 2 2 4 7 8 9 8 10 4 0 3 4 3 7 7 3 3 2 1 3 1 12 16 14 8 9 14 11 15 5 11 16 27 23
19 20 21 20 17 19 19 13 9 16 15 4 4 4 2 2 7 4 6 6 6 4 2 2 1 3 3 3 5 13 10 6 8 5 1 3 15 13 5 9 12 5 6 4 7 15 7
19 19 22 21 19 18 19 17 11 16 16 4 3 5 3 2 2 3 5 3 3 3 3 2 3 1 1 3 3 6 6 3 10 12 8 6 9 19 18 10 4 2 5 3 10 3 2
20 18 21 22 20 20 19 19 15 17 19 8 3 5 2 3 2 3 1 5 1 3 5 5 3 1 1 4 4 3 3 5 3 3 6 12 11 7 8 7 12 6 4 8 1 2 4
19 20 21 20 22 20 18 20 16 17 18 12 3 3 1 2 2 1 2 3 1 4 2 3 2 2 2 2 2 3 3 2 4 6 1 5 3 4 5 1 3 5 3 1 3 3 2
Wind_Direction
222 219 216 218 225 229 231 227 240 240 228 231 231 237 262 280 295 307 321 330 334 333 329 326 323 328 308 252 315 100 217 149 205 198 217 226 248 275 259 219 216 246 174 201 154 171 241
221 219 219 217 217 217 228 230 233 241 240 228 229 232 238 262 279 292 309 321 329 332 328 322 317 315 266 263 89 74 113 144 231 221 195 230 306 290 293 253 247 29 232 228 220 226 227
221 220 218 219 216 215 217 225 229 233 241 235 227 232 238 242 260 279 298 316 330 329 330 333 329 292 253 277 33 129 142 93 342 268 217 332 277 239 155 196 162 264 264 230 228 218 236
225 224 223 221 217 217 215 213 216 229 233 237 226 231 234 241 248 263 284 313 318 319 317 324 316 276 271 66 125 179 169 117 105 79 61 85 236 126 286 115 186 245 247 251 106 170 155
245 222 222 223 219 215 213 213 213 211 224 226 231 224 235 237 244 256 274 294 305 301 303 299 270 269 261 135 195 153 220 170 125 105 79 129 207 229 179 223 232 207 263 210 178 197 147
317 309 239 219 223 219 211 210 213 210 214 214 223 219 228 234 236 241 255 278 304 274 230 255 264 253 177 176 126 147 130 163 145 145 138 186 208 219 223 215 233 265 223 245 257 142 220
300 291 316 268 222 220 217 207 211 209 203 207 215 212 218 226 218 227 249 230 225 201 213 220 224 261 143 107 175 178 159 161 150 202 208 207 218 219 223 228 256 296 287 276 277 104 273
334 286 283 292 289 226 216 213 211 210 204 197 204 205 208 216 209 215 255 242 6 11 293 228 242 252 186 191 152 175 183 189 196 209 204 187 231 240 240 276 240 243 259 262 271 135 255
328 327 269 275 310 281 230 213 211 211 206 196 194 195 194 198 189 204 221 223 353 315 259 240 202 222 193 178 214 179 184 204 212 217 202 228 211 255 194 203 221 234 244 260 273 160 233
330 327 333 286 282 298 271 224 212 207 203 195 189 186 183 174 185 188 213 227 243 317 267 241 204 212 163 186 221 144 200 190 207 221 216 240 224 159 204 228 219 248 229 255 267 262 269
318 321 329 322 309 283 287 247 214 205 197 195 191 183 188 179 163 184 149 168 188 257 273 29 128 70 163 190 119 171 170 185 208 187 181 191 187 203 219 230 208 263 43 237 251 258 274
311 313 323 317 318 317 278 299 223 207 200 196 194 187 180 197 232 170 133 131 154 212 241 160 130 167 164 197 156 114 171 211 345 196 237 259 23 210 222 67 216 127 113 110 224 251 250
294 311 313 315 319 318 312 277 258 212 203 194 195 191 185 186 200 149 148 136 164 229 130 184 172 177 196 177 175 182 180 187 184 191 222 218 221 172 181 146 154 201 175 236 234 210 250
294 295 307 318 305 311 317 290 270 225 204 199 195 193 198 201 192 156 173 162 202 230 224 103 147 171 190 169 197 187 179 203 219 222 258 208 221 197 197 211 186 198 201 207 248 225 253
291 289 299 304 319 308 308 312 251 251 215 200 194 198 201 192 184 174 168 192 214 224 221 195 153 190 207 203 201 179 208 216 202 209 198 203 230 166 183 207 202 176 222 260 288 183 269
281 290 288 297 301 309 306 313 253 224 236 206 202 207 207 183 174 190 189 207 227 225 223 211 213 196 195 194 187 193 188 219 209 197 213 219 233 179 145 159 237 220 159 177 218 227 238
272 282 287 296 300 307 299 310 303 220 214 211 212 219 172 174 170 203 204 210 223 213 211 225 218 220 227 196 198 196 208 195 200 183 199 206 235 129 154 203 186 178 206 225 253 229 250
272 280 285 288 288 287 299 300 301 237 210 225 217 224 160 161 201 203 207 217 206 212 233 243 238 221 212 204 200 205 216 212 189 155 184 201 252 228 215 85 266 240 217 207 220 186 246
262 266 274 281 287 294 304 289 302 324 182 173 237 211 175 177 206 205 223 223 227 212 213 214 220 225 226 213 216 220 212 214 176 173 169 166 215 236 251 179 175 225 221 234 231 12 226
267 264 261 270 272 287 301 273 286 299 262 183 260 213 192 218 199 208 209 217 218 216 228 222 224 215 220 228 211 234 217 159 190 201 183 170 164 204 232 227 167 205 212 210 216 227 232
283 264 265 258 269 277 282 270 272 297 315 211 201 273 10 212 212 206 210 221 219 214 218 208 223 227 216 228 223 225 207 136 205 220 183 195 222 224 240 252 264 224 212 206 211 228 221
306 285 274 269 267 271 274 301 254 286 343 270 154 170 224 285 297 223 206 214 218 218 202 212 222 220 223 228 222 213 213 203 196 180 190 233 238 232 253 241 245 246 236 219 218 228 235
278 299 288 277 277 276 262 304 234 238 194 272 336 326 126 225 305 275 234 221 222 222 218 220 218 220 218 226 227 236 242 250 239 190 186 170 216 198 245 227 245 278 235 225 228 222 221
279 281 295 293 284 280 260 259 275 212 213 162 177 273 144 202 214 227 279 319 245 241 226 222 222 214 223 179 92 66 70 74 227 233 187 194 198 214 250 135 224 242 241 228 234 238 225
260 266 275 284 296 285 280 259 279 221 208 195 156 174 193 243 188 224 224 237 279 347 32 323 326 326 330 156 133 132 123 89 206 249 203 208 197 217 218 220 271 256 197 193 191 239 230
272 267 265 273 281 291 281 251 246 242 207 203 171 123 160 260 221 153 211 211 203 186 184 238 315 331 51 126 158 200 201 172 193 199 273 218 216 206 159 223 225 300 141 168 137 249 191
275 279 277 264 269 279 285 271 222 260 201 198 162 171 125 221 226 239 168 174 136 154 133 157 172 133 348 141 188 194 191 163 174 182 168 173 198 217 222 235 251 128 156 200 168 265 11
268 265 269 272 261 265 282 270 230 245 202 190 144 189 185 204 201 205 295 131 167 214 161 136 123 121 122 201 189 176 170 189 171 166 178 175 175 194 224 235 239 149 106 184 324 24 98
271 268 270 267 260 255 270 273 258 236 200 204 156 161 95 273 34 47 279 151 153 329 122 173 95 130 135 169 159 127 138 168 144 194 175 213 265 174 216 229 3 72 49 267 16 105 157